Location: Casper
(42.8670°N, 106.3130°W)
Time: 02:22:16
(UTC-06:00)

Daily predictions for brighter satellites

Satellite Brightness Start Highest point End
(mag) Time Altitude Azimuth Time Altitude Azimuth Time Altitude Azimuth
H-2A R/B 3.5 00:03:46 10° NNE 00:06:20 33° ENE 00:06:20 33° ENE
Cosmos 2221 3.0 00:04:33 10° N 00:08:31 50° ENE 00:08:31 50° ENE
Cosmos 2026 Rocket 4.0 00:10:43 53° SE 00:11:45 61° E 00:17:44 10° NNE
Cosmos 2195 Rocket 4.4 00:10:59 56° SSE 00:12:14 71° E 00:18:27 10° NNE
Lacrosse 4 Rocket 3.8 00:11:48 10° W 00:14:53 20° NW 00:17:59 10° N
Cosmos 1627 Rocket 4.4 00:14:01 58° SSE 00:15:12 74° E 00:21:19 10° NNE
ATLAS 3B R/B 3.9 00:08:44 10° WSW 00:16:00 44° NW 00:23:06 10° NNE
Okean 3 Rocket 3.5 00:17:23 79° NNW 00:17:23 79° NNW 00:21:38 10° N
ISS -0.8 00:15:18 10° WNW 00:17:59 23° NNW 00:20:41 10° NE
NOSS 3-2 (A) 3.7 00:19:14 47° ESE 00:19:25 47° ESE 00:25:40 10° NE
Cosmos 1707 3.3 00:21:54 58° N 00:21:54 58° N 00:25:06 10° N
Cosmos 614 Rocket 3.9 00:20:55 66° SW 00:21:35 77° WNW 00:26:50 10° NNE
CZ-4B R/B 2.6 00:24:39 44° NNE 00:24:39 44° NNE 00:27:25 10° N
Cosmos 1607 3.9 00:24:11 48° SW 00:26:05 85° NW 00:32:21 10° NNE
Cosmos 2208 Rocket 4.5 00:21:27 10° NNW 00:26:23 45° WSW 00:26:37 45° WSW
Cosmos 2082 Rocket 4.0 00:28:50 18° E 00:28:50 18° E 00:32:09 10° ENE
ALOS 2 2.7 00:40:13 73° NW 00:40:13 73° NW 00:44:15 10° NNW
Meteor 1-24 Rocket 3.7 00:40:39 65° SSE 00:41:35 81° E 00:47:33 10° NNE
Cosmos 1943 Rocket 3.7 00:42:07 10° NW 00:46:16 22° W 00:46:33 22° WSW
SL-8 R/B 3.7 00:42:01 10° WNW 00:46:26 74° WNW 00:46:26 74° WNW
Cosmos 1417 Rocket 4.4 00:43:33 10° N 00:49:41 76° W 00:50:43 61° SSW
Cosmos 1408 Rocket 3.7 00:51:09 73° NNW 00:51:09 73° NNW 00:55:17 10° N
USA 238 DEB 4.4 00:45:41 19° WSW 00:50:48 53° NW 00:57:43 10° NNE
USA 238 4.3 00:45:51 19° WSW 00:50:53 54° NW 00:57:49 10° NNE
Meteor 2-5 Rocket 4.5 00:53:37 38° WSW 00:55:08 46° WNW 01:00:43 10° N
Cosmos 1553 Rocket 3.9 00:48:53 10° N 00:55:16 90° ENE 00:56:31 61° S
CZ-2C R/B 4.4 00:55:22 28° ESE 00:57:09 35° ENE 01:02:14 10° N
Lacrosse 5 3.9 00:56:27 10° NNW 01:00:44 26° NNE 01:04:58 10° E
Cosmos 1378 4.1 01:03:29 47° N 01:03:29 47° N 01:06:17 10° N
Cosmos 841 Rocket 4.0 01:06:22 10° NNW 01:11:32 53° ENE 01:12:30 46° ESE
Meteor 1-21 Rocket 4.4 01:12:52 55° SE 01:13:33 59° E 01:19:09 10° NNE
CZ-2C R/B 2.7 01:10:14 10° NNE 01:15:47 65° ESE 01:16:17 62° SE
NOSS 3-3 (A) 4.4 01:08:46 10° NW 01:16:13 76° WSW 01:18:35 49° SSE
NOSS 3-3 (C) 4.4 01:08:53 10° NW 01:16:20 77° WSW 01:18:44 48° SSE
Cosmos 1743 Rocket 3.7 01:17:15 73° N 01:17:15 73° N 01:21:19 10° N
Cosmos 1151 Rocket 4.0 01:13:30 10° N 01:17:28 38° ENE 01:17:28 38° ENE
Helios 1A Rocket 3.7 01:17:04 10° N 01:20:36 46° NW 01:20:36 46° NW
S3M 4.2 01:15:14 10° NNW 01:21:20 56° W 01:22:20 50° SW
Cosmos 2266 Rocket 4.0 01:23:05 59° S 01:24:25 82° E 01:30:52 10° N
NOSS 3-2 (C) 3.5 01:23:13 52° SW 01:24:52 80° NW 01:31:37 10° NE
CENTAUR R/B 3.6 01:24:34 27° ESE 01:25:02 27° ESE 01:30:29 10° NE
Cosmos 2151 4.3 01:25:31 30° E 01:25:31 30° E 01:29:00 10° NNE
CZ-4C R/B 2.3 01:25:09 53° WSW 01:26:22 69° NW 01:32:25 10° NNE
In-Cosmos 22 4.0 01:26:02 72° S 01:26:38 85° E 01:32:20 10° NNE
Timation 2 Rocket 4.1 01:25:46 54° SSW 01:27:34 89° WNW 01:34:25 10° NNE
Cosmos 2369 3.5 01:21:55 10° NNW 01:27:35 79° WSW 01:28:07 71° SSW
Genesis I 4.2 01:25:09 10° NNW 01:28:58 44° NE 01:28:58 44° NE
Lacrosse 5 rocket 4.4 01:28:14 10° NNW 01:31:03 17° NNE 01:33:56 10° ENE
Cosmos 405 Rocket 4.1 01:35:29 33° NW 01:35:29 33° NW 01:38:21 10° N
Cosmos 1500 Rocket 3.6 01:35:18 72° N 01:35:18 72° N 01:39:14 10° N
Cosmos 2344 3.6 01:37:44 47° SSW 01:40:20 77° ESE 01:49:07 10° NE
Cosmos 1908 3.9 01:37:44 10° N 01:40:52 54° NNE 01:40:52 54° NNE
Cosmos 1328 Rocket 4.3 01:38:03 10° NNW 01:41:40 44° WNW 01:41:40 44° WNW
H-2A R/B 4.4 01:45:24 15° ESE 01:45:24 15° ESE 01:48:12 10° ESE
Cosmos 836 Rocket 4.4 01:40:42 10° NNW 01:45:56 80° ENE 01:46:38 66° SE
ASTEX 1 3.7 01:44:55 10° NNE 01:49:49 55° E 01:50:22 52° ESE
Cosmos 2278 4.1 01:45:15 10° NW 01:50:34 44° WSW 01:50:34 44° WSW
Cosmos 2228 Rocket 4.5 01:47:42 10° NNW 01:50:53 27° WNW 01:50:53 27° WNW
Cosmos 1818 4.0 01:47:12 10° NW 01:52:03 47° WSW 01:52:03 47° WSW
Cosmos 1437 Rocket 3.2 01:49:03 10° N 01:52:28 60° NNE 01:52:28 60° NNE
Cosmos 1980 Rocket 3.2 01:47:43 10° NNW 01:53:06 43° ENE 01:56:36 20° ESE
Cosmos 1515 Rocket 4.2 01:49:09 10° NNW 01:52:57 45° WNW 01:52:57 45° WNW
ISS -0.3 01:52:56 10° NW 01:55:15 18° N 01:57:34 10° NE
Cosmos 1300 4.0 01:55:35 10° N 01:59:05 33° ENE 01:59:19 32° E
ERS-2 4.2 01:57:24 10° NE 02:00:00 19° E 02:00:00 19° E
Cosmos 1441 Rocket 3.5 02:01:01 66° N 02:01:01 66° N 02:04:29 10° N
Meteor 2-11 Rocket 4.5 02:00:02 10° N 02:06:12 75° E 02:08:16 44° SSE
Cosmos 2082 Rocket 2.3 02:10:40 51° WSW 02:11:57 66° WNW 02:17:37 10° NNE
Cosmos 1697 Rocket 2.6 02:08:30 10° NNW 02:14:12 83° WSW 02:15:37 53° SSE
Cosmos 1763 Rocket 4.2 02:09:46 10° NW 02:14:32 39° W 02:14:32 39° W
Cosmos 332 Rocket 4.4 02:12:41 10° N 02:17:24 52° ENE 02:19:19 32° SE
Cosmos 2242 Rocket 4.5 02:15:57 10° N 02:20:10 43° ENE 02:21:25 34° ESE
BREEZE-M DEB (TANK) 3.8 02:18:41 10° NW 02:21:27 54° NNE 02:29:25 10° ESE
Cosmos 540 Rocket 3.4 02:16:25 10° NNW 02:21:37 82° ENE 02:23:04 49° SSE
Cosmos 1833 Rocket 2.7 02:21:45 50° SW 02:23:09 69° WNW 02:28:47 10° NNE
SL-08 R/B 4.4 02:21:53 23° SE 02:24:26 41° ENE 02:29:03 10° N
Cosmos 1805 Rocket 3.4 02:25:25 77° S 02:25:45 89° E 02:30:12 10° N
Cosmos 1867 4.5 02:25:38 30° W 02:27:42 42° NW 02:32:55 10° NNE
Aureole 1 Rocket 3.4 02:26:48 10° NNW 02:31:21 68° WSW 02:32:32 52° SSW
Cosmos 1674 3.9 02:31:57 31° WNW 02:31:57 31° WNW 02:34:56 10° NNW
Landsat 4 3.7 02:32:13 71° NW 02:32:13 71° NW 02:35:40 10° NNW
ATLAS 5 CENTAUR R/B 4.3 02:32:55 10° ESE 02:33:58 11° ESE 02:35:02 10° E
Cosmos 1726 2.3 02:30:35 10° N 02:34:15 64° E 02:34:21 64° E
Cosmos 1633 Rocket 3.2 02:34:04 57° SE 02:34:46 68° E 02:39:11 10° NNE
USA 215 3.3 02:29:00 10° NE 02:35:30 67° SE 02:37:56 40° SSW
CZ-2C R/B 3.9 02:36:26 34° WSW 02:36:56 35° W 02:42:05 10° NNW
Cosmos 1707 Rocket 3.4 02:34:41 10° NNW 02:39:02 69° W 02:39:20 66° SW
USA 32 4.4 02:34:51 10° NNW 02:39:53 47° W 02:40:44 43° WSW
Cosmos 1328 4.4 02:40:16 44° WNW 02:40:16 44° WNW 02:44:04 10° N
Meteor 1-27 4.2 02:34:31 10° NNW 02:40:24 83° W 02:42:34 41° S
Iridium 2 4.3 02:42:08 45° WNW 02:42:08 45° WNW 02:45:33 10° N
Cosmos 1666 Rocket 3.3 02:42:08 68° SSW 02:42:39 81° W 02:46:59 10° N
SL-14 R/B 3.1 02:42:29 78° SE 02:42:39 82° E 02:46:30 10° N
Lacrosse 5 1.7 02:39:08 10° NW 02:44:13 85° SW 02:48:16 16° SE
Cosmos 1437 3.1 02:44:43 63° NNW 02:44:43 63° NNW 02:47:39 10° N
BREEZE-M TANK 2.6 02:40:35 10° WSW 02:48:43 87° NNW 02:51:33 10° ENE
Cosmos 1656 4.5 02:44:45 10° NW 02:49:46 33° WSW 02:50:03 32° WSW
Cosmos 1470 Rocket 4.2 02:51:40 35° SSE 02:53:09 51° E 02:57:27 10° NNE
SL-16 R/B 3.0 02:47:58 10° NNW 02:53:30 50° ENE 02:58:59 10° SE
Cosmos 1626 3.7 02:53:42 23° SE 02:54:59 29° E 02:58:16 10° NNE
Cosmos 1703 3.5 02:54:39 52° SSE 02:55:25 66° E 02:59:22 10° NNE
IRS-P3 4.0 02:50:47 10° NNE 02:56:10 89° W 02:58:07 41° SSW
Cosmos 1933 Rocket 4.0 02:56:23 36° SSE 02:57:50 55° E 03:02:10 10° NNE
Resurs 1-4 Rocket 4.1 02:55:17 10° NE 02:59:15 21° E 03:03:11 10° SE
Cosmos 2058 3.7 02:59:41 36° W 03:00:06 37° WNW 03:04:00 10° N
Cosmos 968 Rocket 3.4 02:59:07 41° S 03:00:53 77° ESE 03:06:02 10° NNE
SL-16 R/B 4.0 02:55:38 10° SE 03:01:16 37° ENE 03:06:55 10° N
Cosmos 1386 Rocket 4.4 03:01:20 33° S 03:04:20 88° W 03:10:32 10° N
USA 161 3.0 03:05:59 27° ENE 03:06:00 27° ENE 03:08:05 10° NNE
Cosmos 2322 Rocket 2.5 03:01:00 10° NNW 03:06:38 67° ENE 03:12:12 10° SSE
Cosmos 1271 Rocket 3.0 03:04:20 10° N 03:08:07 62° ENE 03:09:36 33° SSE
Abrixas 3.8 03:08:09 30° NW 03:08:59 37° NNW 03:11:55 10° NE
Cosmos 371 Rocket 3.2 03:04:35 10° NNW 03:09:28 77° WSW 03:11:43 32° S
Cosmos 1745 Rocket 4.2 03:08:03 33° SW 03:10:50 58° W 03:17:07 10° N
Lacrosse 5 rocket 2.3 03:06:51 10° NW 03:11:09 54° NE 03:15:35 10° ESE
CENTAUR R/B 2.9 03:11:44 27° WSW 03:15:08 59° NW 03:22:02 10° NNE
Spot 4 Rocket 4.4 03:11:07 10° NNE 03:16:12 58° E 03:19:11 24° S
Sich 1 3.7 03:15:33 35° WSW 03:16:32 40° WNW 03:20:44 10° N
Cosmos 1538 Rocket 3.9 03:11:26 10° NNW 03:16:37 66° WSW 03:19:21 28° S
Nadezhda 1 Rocket 4.1 03:11:31 10° NNW 03:17:32 56° W 03:20:27 30° SSW
Cosmos 923 Rocket 4.4 03:15:01 10° NNW 03:20:16 63° ENE 03:25:26 10° SSE
H-2A ROCKET BODY 3.8 03:25:48 11° SSE 03:25:48 11° SSE 03:25:56 10° SSE
Cosmos 1709 Rocket 4.1 03:18:28 24° S 03:22:33 80° E 03:28:50 10° N
Okean O Rocket 4.2 03:22:41 10° ENE 03:24:57 14° E 03:27:11 10° ESE
Cosmos 1680 Rocket 4.1 03:24:50 10° NNW 03:30:00 58° ENE 03:35:08 10° SSE
AQUA 4.0 03:25:41 10° N 03:30:23 59° WNW 03:32:30 31° SW
Cosmos 1862 Rocket 3.5 03:27:33 10° NNW 03:32:02 72° W 03:34:22 27° S
ISS -1.7 03:29:17 10° NW 03:32:21 37° NNE 03:35:25 10° E
ERS-2 3.4 03:30:46 10° N 03:33:59 28° WNW 03:34:52 25° W
Cosmos 1777 Rocket 4.0 03:31:11 28° SSW 03:34:01 87° WNW 03:39:20 10° NNE
deb Kosmos-1763 4.3 03:34:35 38° SW 03:35:52 62° WNW 03:39:42 10° NNE
Cosmos 1980 Rocket 3.1 03:32:07 10° NW 03:36:52 28° WSW 03:38:18 25° SW
Cosmos 2360 Rocket 3.3 03:32:30 10° NNW 03:37:54 45° ENE 03:43:16 10° SE
CBERS-1 4.3 03:33:12 10° N 03:38:11 53° WNW 03:40:49 26° SW
Cosmos 773 Rocket 3.9 03:35:26 10° NNW 03:40:33 71° WSW 03:45:20 12° S
CZ-2D R/B 2.8 03:38:02 10° NNE 03:43:08 49° E 03:47:58 11° S
ADEOS 3.7 03:39:50 10° N 03:45:01 65° WNW 03:48:12 23° SSW
Cosmos 2221 Rocket 4.1 03:40:46 10° N 03:45:14 60° E 03:49:42 10° SSE
ARIANE 5 R/B 2.6 03:42:02 10° NNE 03:47:10 77° ESE 03:50:59 18° S
IRS-1D 3.8 03:41:52 10° NNE 03:47:13 69° ESE 03:51:33 15° S
NPP 4.4 03:43:36 10° N 03:48:32 38° WNW 03:51:32 21° WSW
ERS-1 4.5 03:45:19 10° N 03:50:25 77° WNW 03:53:58 21° SSW
Cosmos 2322 4.5 03:45:13 10° NNW 03:50:52 56° ENE 03:56:29 10° SE
BREEZE-M DEB (TANK) 4.1 03:44:50 10° W 03:55:01 64° N 03:58:33 10° E
UNK 3.8 03:51:01 10° SSE 03:55:35 79° ENE 04:00:11 10° N
Meteor 1-4 Rocket 3.6 03:53:15 10° NNW 03:56:36 31° W 03:57:47 25° SW
Cosmos 2082 Rocket 4.4 03:54:46 10° WNW 03:57:12 13° NW 03:59:39 10° NNW
Cosmos 1869 Rocket 3.9 03:54:31 13° S 03:58:20 64° E 04:02:43 10° NNE
Cosmos 1455 3.0 03:58:47 10° NNW 04:02:12 32° W 04:03:44 23° SW
OAO 3 Rocket 4.0 04:01:42 22° SW 04:03:48 31° S 04:07:58 10° ESE
Cosmos 2181 Rocket 4.4 04:08:06 10° NNW 04:13:55 45° W 04:19:34 11° SSW
ATLAS 5 CENTAUR R/B 1.9 04:13:48 17° SSW 04:17:39 86° ESE 04:22:57 10° NE
USA 215 4.1 04:12:11 10° NE 04:18:20 45° NNW 04:24:28 10° W
Cosmos 1869 4.5 04:16:13 10° NNW 04:19:31 26° W 04:21:41 16° SW
UNKNOWN OBJECT B 2.8 04:15:49 10° NNE 04:19:38 83° ESE 04:23:28 10° S
COSMOS 2428 3.8 04:14:44 10° NNW 04:20:15 48° ENE 04:25:43 10° SE
Cosmos 1833 4.3 04:16:32 13° SSW 04:21:41 87° WNW 04:27:28 10° NNE
Cosmos 2112 Rocket 4.1 04:19:03 10° NNW 04:24:07 54° WSW 04:29:10 10° S
GENESIS II 4.3 04:20:16 10° NW 04:24:25 90° SW 04:28:28 10° SSE
Lacrosse 5 3.4 04:23:53 10° W 04:26:27 14° WSW 04:27:10 14° SW
Cosmos 1703 Rocket 3.9 04:22:40 10° NNW 04:26:50 45° W 04:30:58 10° SSW
CZ-2D R/B 3.6 04:22:56 10° NNE 04:27:08 73° ESE 04:31:12 10° S
ATLAS CENTAUR R/B 2.8 04:25:20 10° NNW 04:29:57 47° NE 04:34:11 10° SE
Cosmos 1626 3.9 04:28:26 13° WSW 04:30:27 18° WNW 04:33:06 10° NNW
Cosmos 1733 Rocket 4.4 04:28:28 10° SSE 04:32:30 39° E 04:36:34 10° NNE
SL-16 R/B 3.3 04:32:45 10° NW 04:37:15 25° WSW 04:41:43 10° SSW
Resurs 1-4 Rocket 2.4 04:34:14 10° N 04:39:23 52° WNW 04:44:31 10° SW
CZ-4B R/B 3.9 04:37:11 10° NNE 04:41:04 48° E 04:45:07 10° S
Meteor 2-3 Rocket 3.9 04:36:58 10° S 04:42:44 85° E 04:48:35 10° N
SL-16 R/B 3.1 04:39:02 10° SSW 04:44:49 39° W 04:50:39 10° NNW
Cosmos 1933 4.5 04:41:27 10° NNW 04:44:50 26° W 04:48:11 10° SSW
BREEZE-M DEB (TANK) 3.6 04:35:16 10° SW 04:45:43 55° SSE 04:49:02 10° ENE
BREEZE-M DEB (TANK) 1.5 04:43:06 10° WNW 04:46:03 78° NNE 04:48:17 10° ESE
Cosmos 2074 Rocket 4.3 04:42:09 10° SSW 04:48:10 51° WNW 04:54:15 10° N
PSLV R/B 3.8 04:45:35 10° N 04:49:29 79° WNW 04:53:30 10° SSW
Cosmos 2322 Rocket 3.6 04:46:28 10° WNW 04:50:03 17° W 04:53:36 10° SW
Lacrosse 5 rocket 2.6 04:46:37 10° WNW 04:50:13 24° SW 04:53:54 10° S
Cosmos 2184 Rocket 4.4 04:45:58 10° SSW 04:52:07 50° WNW 04:58:17 10° N
Cosmos 2298 Rocket 4.2 04:49:40 10° SSW 04:54:58 66° WNW 05:00:18 10° NNE
MOZ.5/SAFIR/RUBIN 5/SL-8 3.8 04:51:48 10° SSE 04:56:29 87° WSW 05:01:14 10° NNW
Okean 1-7 3.8 04:54:12 10° NNW 04:58:11 34° W 05:02:06 10° SSW
Cosmos 2219 Rocket 3.3 04:55:41 10° NNW 05:01:08 51° ENE 05:06:33 10° SE
